Regional Weather Roundup
Issued by NWS

Home | Current Version | Previous Version | Text Only | Print | Product List | Glossary On
Versions: 1 2 3 4 5 6 7 8 9 10 11 12 13 14 15 16 17 18 19 20 21 22 23 24 25 26 27 28 29 30 31 32 33 34 35 36 37 38 39 40 41 42 43 44 45 46 47 48 49 50
000
ASUS43 KBIS 080010
RWRND

NORTH DAKOTA REGIONAL WEATHER ROUNDUP
NATIONAL WEATHER SERVICE BISMARCK ND
600 PM CST WED DEC 07 2016

NOTE: "FAIR" INDICATES FEW OR NO CLOUDS BELOW 12,000 FEET WITH NO
SIGNIFICANT WEATHER AND/OR OBSTRUCTIONS TO VISIBILITY.


NDZ001>003-009>011-017-080100-
NORTHWEST NORTH DAKOTA

CITY           SKY/WX    TMP DP  RH WIND       PRES   REMARKS
WILLISTON      CLOUDY     3  -5  69 NW12      30.52R WCI -13
6HR MIN TEMP:   0; 6HR MAX TEMP:   3; 6HR PCP: TRACE;

MINOT          LGT SNOW   5   0  79 W30G40    30.34R WCI -19
MINOT AFB      DRIZZLE    3   0  85 NW33G41   30.34R WCI -23
$$

NDZ018>021-031>035-040>046-080100-
SOUTHWEST NORTH DAKOTA

CITY           SKY/WX    TMP DP  RH WIND       PRES   REMARKS
BISMARCK       MIX PCPN   4  -2  76 NW17G28   30.38R WCI -16
6HR MIN TEMP:   4; 6HR MAX TEMP:   5; 6HR PCP: TRACE;

DICKINSON      CLEAR     -2  -8  76 W30G38    30.36S HAZE    WCI -29
GARRISON         N/A      3  -1  83 NW31G41   30.34R WCI -22
6HR MIN TEMP:   2; 6HR MAX TEMP:   3; 6HR PCP:  0.01;

HETTINGER ARPT CLEAR      0  -6  76 NW24      30.41R WCI -24
$$

NDZ004>008-012>016-024-026-027-054-080100-
NORTHEAST NORTH DAKOTA

CITY           SKY/WX    TMP DP  RH WIND       PRES   REMARKS
GRAND FORKS    LGT SNOW  19  15  84 NW24      30.10R BLWGSNOWWCI   2
GRND FRKS AFB  LGT SNOW  18  14  83 NW21G28   30.11R WCI   2
DEVILS LAKE    LGT SNOW  12   9  85 NW24      30.19R VSB 3/4 WCI  -8
$$

NDZ022-023-025-028>030-036>039-047>053-080100-
SOUTHEAST NORTH DAKOTA

CITY           SKY/WX    TMP DP  RH WIND       PRES   REMARKS
FARGO          LGT SNOW  15  10  80 W25G33    30.13R WCI  -4
6HR MIN TEMP:  15; 6HR MAX TEMP:  17; 6HR PCP: TRACE;

JAMESTOWN      SNOW       8   5  87 NW31G45   30.21R VSB 1/2 WCI -15
$$




USA.gov is the U.S. government's official web portal to all federal, state and local government web resources and services.